Miscellaneous Local Product
Issued by NWS Hastings, NE

Home | Current Version | Previous Version | Graphics & Text | Print | Product List | Glossary On
Versions: 1 2 3 4 5 6 7 8 9 10 11 12 13 14 15 16 17 18 19 20 21 22 23 24 25 26 27 28 29 30 31 32 33 34 35 36 37 38 39 40 41 42 43 44 45 46 47 48 49 50
832
AXUS43 KGID 050702
MISGRI

GID CWA HOURLY WEATHER ROUNDUP
NATIONAL WEATHER SERVICE HASTINGS NE
100 AM CST FRI FEB 05 2016

NOTE: "FAIR" INDICATES FEW OR NO CLOUDS BELOW 12,000 FEET WITH NO
SIGNIFICANT WEATHER AND/OR OBSTRUCTIONS TO VISIBILITY.

...SOUTH CENTRAL NEBRASKA...

CITY           SKY/WX    TMP DP  RH WIND       PRES   REMARKS
GRAND ISLAND   CLOUDY    17  13  84 SW5       30.29F WCI  10
HASTINGS       CLOUDY    17  11  77 SW5       30.29S WCI  10
ORD            CLOUDY    17  13  84 CALM      30.24F
YORK           CLOUDY    14  12  92 W3        30.31S
AURORA         CLOUDY    15  14  95 CALM      30.30S
LEXINGTON      CLOUDY    22  16  78 SW3       30.24F
HOLDREGE       CLOUDY    18  14  84 CALM      30.27S
HEBRON         CLOUDY    13  11  92 CALM      30.34S

...NEBRASKA PANHANDLE...

CITY           SKY/WX    TMP DP  RH WIND       PRES   REMARKS
CHADRON        CLOUDY    31  23  72 SW9       30.15R WCI  23
ALLIANCE       CLOUDY    28  23  81 W12       30.13F WCI  18
SCOTTSBLUFF    CLOUDY    30  20  66 W13       30.16S WCI  20
SIDNEY         LGT SNOW  28  26  92 W15       30.18F FOG     WCI  16

...WESTERN AND NORTH CENTRAL NEBRASKA...

CITY           SKY/WX    TMP DP  RH WIND       PRES   REMARKS
VALENTINE      CLOUDY    27  20  75 SW6       30.13F WCI  20
AINSWORTH      CLOUDY    26  19  73 SW7       30.15S WCI  18
ONEILL         CLOUDY    20  13  76 S12       30.21F WCI   8
BROKEN BOW     CLOUDY    20  16  84 S3        30.21F
IMPERIAL       CLOUDY    29  24  82 W10       30.22F WCI  20
NORTH PLATTE   FLURRIES  27  24  89 W7        30.21F WCI  19
MCCOOK         CLOUDY    21  16  81 SW8       30.26S WCI  11

...EASTERN NEBRASKA...

CITY           SKY/WX    TMP DP  RH WIND       PRES   REMARKS
NORFOLK        CLOUDY     7   5  91 CALM      30.28F FOG
SO SIOUX CITY  CLOUDY    10   6  84 E6        30.33S WCI   0
TEKAMAH        CLOUDY     8   5  87 S5        30.35S FOG     WCI   0
COLUMBUS       CLOUDY     9  -2  61 CALM      30.32S VSB 1
ALBION         CLOUDY    16  13  89 SE3       30.28F
OMAHA EPPLEY   CLOUDY    16  12  84 CALM      30.36S
OFFUTT AFB     CLOUDY    13  11  93 CALM      30.35S
MILLARD        CLOUDY    17  15  90 CALM      30.35S
LINCOLN        CLOUDY    13  10  88 CALM      30.36S
NEBRASKA CITY  CLOUDY    22  18  85 CALM      30.35S
BEATRICE       CLOUDY    17  15  90 CALM      30.34F
FALLS CITY     CLOUDY    22  18  85 W3        30.37R

...NORTHERN KANSAS...

CITY           SKY/WX    TMP DP  RH WIND       PRES   REMARKS
GOODLAND       CLOUDY    23  14  68 W6        30.24R WCI  16
HILL CITY      CLOUDY    18  13  80 W6        30.29S WCI  10
NORTON         MOSUNNY   18  10  73 W8        30.27  WCI   7
PHILLIPSBURG   CLOUDY    16  12  86 CALM      30.30S
SMITH CENTER   CLEAR     12  10  92 CALM      30.31S
BELOIT         CLEAR     19  16  86 CALM      30.34S
HAYS           CLOUDY    18   7  62 CALM      30.30S
RUSSELL        CLOUDY    18  15  88 CALM      30.30F
CONCORDIA      CLOUDY    19  15  84 W3        30.33S
SALINA         CLOUDY    26  18  71 CALM      30.35F
TOPEKA         CLOUDY    25  18  74 CALM      30.38R



USA.gov is the U.S. government's official web portal to all federal, state and local government web resources and services.